Location: Keppel Henge
(44.7900°N, 80.9447°W)
Time: 18:49:57
(UTC-05:00)

Vanguard 2 Rocket - Visible Passes

Search period start: 15 December 2017 00:00
Search period end: 25 December 2017 00:00
Orbit: 556 x 3326 km, 32.9° (Epoch: 15 December)

Date Brightness Start Highest point End Pass type
(mag) Time Alt. Az. Time Alt. Az. Time Alt. Az.
15 Dec 9.7 17:46:49 10° SSW 17:55:10 27° SE 18:06:35 11° E visible
15 Dec 9.3 19:57:02 10° SW 20:09:00 50° SSE 20:12:22 46° SE visible
15 Dec 9.9 22:10:08 10° WSW 22:18:10 38° WSW 22:18:10 38° WSW visible
16 Dec 9.3 18:58:18 10° SW 19:08:34 43° SSE 19:16:08 29° ESE visible
16 Dec 9.4 21:10:26 10° WSW 21:21:56 53° SSW 21:21:56 53° SSW visible
16 Dec 10.5 23:24:46 10° W 23:27:44 18° W 23:27:44 18° W visible
17 Dec 9.4 18:00:05 10° SSW 18:08:40 34° SSE 18:19:54 14° E visible
17 Dec 9.3 20:11:09 10° WSW 20:22:58 52° S 20:25:42 49° SE visible
17 Dec 10.0 22:24:33 10° W 22:31:30 33° WSW 22:31:30 33° WSW visible
18 Dec 9.6 17:02:29 10° S 17:09:16 24° SE 17:19:11 10° E visible
18 Dec 9.2 19:12:16 10° SW 19:22:27 47° SSE 19:29:28 32° ESE visible
18 Dec 9.5 21:24:48 10° WSW 21:35:17 49° SSW 21:35:17 49° SSW visible
18 Dec 10.7 23:39:28 10° W 23:41:05 14° W 23:41:05 14° W visible
19 Dec 9.2 18:13:47 10° SW 18:22:24 40° SSE 18:33:16 17° E visible
19 Dec 9.2 20:25:26 10° WSW 20:37:03 52° S 20:39:04 50° SSE visible
19 Dec 10.1 22:39:07 10° W 22:44:53 28° WSW 22:44:53 28° WSW visible
20 Dec 9.3 17:15:45 10° SSW 17:22:51 30° SSE 17:33:56 10° E visible
20 Dec 9.1 19:26:27 10° WSW 19:36:29 50° S 19:42:53 35° ESE visible
20 Dec 9.6 21:39:16 10° W 21:48:42 43° SW 21:48:42 43° SW visible
21 Dec 9.1 18:27:48 10° SW 18:36:21 44° SSE 18:46:44 19° ESE visible
21 Dec 9.3 20:39:52 10° WSW 20:51:10 49° S 20:52:33 48° S visible
21 Dec 10.3 22:53:55 10° W 22:58:21 22° WSW 22:58:21 22° WSW visible
22 Dec 9.1 17:29:31 10° SW 17:36:40 36° SSE 17:48:21 10° E visible
22 Dec 9.1 19:40:47 10° WSW 19:50:37 49° S 19:56:26 36° SE visible
22 Dec 9.8 21:53:55 10° W 22:02:15 36° SW 22:02:15 36° SW visible
23 Dec 9.0 18:42:02 10° WSW 18:50:27 46° S 19:00:22 20° ESE visible
23 Dec 9.4 20:54:24 10° WSW 21:05:20 44° SSW 21:06:12 43° S visible
23 Dec 10.5 23:09:10 10° W 23:12:01 17° WSW 23:12:01 17° WSW visible
24 Dec 8.9 17:43:34 10° SW 17:50:41 40° SSE 18:02:35 10° ESE visible
24 Dec 9.2 19:55:15 10° WSW 20:04:49 45° S 20:10:12 35° SE visible
24 Dec 10.0 22:08:51 10° W 22:16:02 29° SW 22:16:02 29° SW visible
